| time (UTC) | temp F | wind direction | speed MPH | gust MPH | rain 1hr in | rain 24hr in | rain mn in | humidity % | barometer mb |
| 20260509173040 | 81 | 286 | 2.0 | 5.0 | 0.00 | 0.00 | 0.00 | 16 | 1015.7 |
| 20260509172539 | 81 | 291 | 1.0 | 5.0 | 0.00 | 0.00 | 0.00 | 17 | 1015.7 |
| 20260509172039 | 81 | 305 | 2.0 | 5.0 | 0.00 | 0.00 | 0.00 | 16 | 1015.7 |
| 20260509171538 | 80 | 192 | 1.0 | 5.0 | 0.00 | 0.00 | 0.00 | 17 | 1015.8 |
| 20260509171035 | 80 | 167 | 2.0 | 5.0 | 0.00 | 0.00 | 0.00 | 18 | 1015.8 |
| 20260509170534 | 79 | 207 | 0.0 | 6.0 | 0.00 | 0.00 | 0.00 | 18 | 1015.8 |
| 20260509170032 | 79 | 170 | 2.0 | 7.0 | 0.00 | 0.00 | 0.00 | 19 | 1015.8 |
| 20260509165530 | 78 | 142 | 3.0 | 7.0 | 0.00 | 0.00 | 0.00 | 20 | 1015.8 |
| 20260509165029 | 78 | 192 | 1.0 | 5.0 | 0.00 | 0.00 | 0.00 | 19 | 1015.8 |
| 20260509164527 | 77 | 194 | 3.0 | 7.0 | 0.00 | 0.00 | 0.00 | 20 | 1015.9 |
| 20260509164027 | 77 | 187 | 3.0 | 7.0 | 0.00 | 0.00 | 0.00 | 22 | 1015.9 |
| 20260509163524 | 77 | 194 | 2.0 | 6.0 | 0.00 | 0.00 | 0.00 | 20 | 1015.9 |
| 20260509163030 | 76 | 211 | 3.0 | 6.0 | 0.00 | 0.00 | 0.00 | 22 | 1015.9 |
| 20260509162524 | 76 | 157 | 3.0 | 6.0 | 0.00 | 0.00 | 0.00 | 23 | 1015.9 |
| 20260509162025 | 76 | 207 | 3.0 | 6.0 | 0.00 | 0.00 | 0.00 | 23 | 1015.8 |
| 20260509161519 | 75 | 213 | 2.0 | 6.0 | 0.00 | 0.00 | 0.00 | 23 | 1015.8 |
| 20260509161018 | 74 | 198 | 2.0 | 6.0 | 0.00 | 0.00 | 0.00 | 24 | 1015.9 |
| 20260509160520 | 74 | 155 | 2.0 | 6.0 | 0.00 | 0.00 | 0.00 | 24 | 1015.9 |
| 20260509160014 | 73 | 184 | 2.0 | 7.0 | 0.00 | 0.00 | 0.00 | 23 | 1015.9 |
| 20260509155514 | 73 | 213 | 3.0 | 7.0 | 0.00 | 0.00 | 0.00 | 24 | 1015.9 |
| 20260509155012 | 73 | 171 | 4.0 | 6.0 | 0.00 | 0.00 | 0.00 | 24 | 1015.8 |
| 20260509154512 | 72 | 231 | 3.0 | 6.0 | 0.00 | 0.00 | 0.00 | 25 | 1015.8 |
| 20260509154009 | 72 | 190 | 1.0 | 7.0 | 0.00 | 0.00 | 0.00 | 26 | 1015.8 |
| 20260509153507 | 71 | 215 | 4.0 | 7.0 | 0.00 | 0.00 | 0.00 | 26 | 1015.9 |
| 20260509153006 | 71 | 200 | 4.0 | 7.0 | 0.00 | 0.00 | 0.00 | 25 | 1015.9 |
| 20260509152505 | 71 | 219 | 3.0 | 7.0 | 0.00 | 0.00 | 0.00 | 26 | 1015.9 |
| 20260509152005 | 70 | 211 | 3.0 | 6.0 | 0.00 | 0.00 | 0.00 | 26 | 1015.9 |
| 20260509151503 | 70 | 190 | 4.0 | 6.0 | 0.00 | 0.00 | 0.00 | 26 | 1015.9 |
| 20260509151100 | 69 | 186 | 3.0 | 7.0 | 0.00 | 0.00 | 0.00 | 26 | 1015.8 |
| 20260509150559 | 69 | 201 | 4.0 | 7.0 | 0.00 | 0.00 | 0.00 | 26 | 1015.8 |
| 20260509150058 | 69 | 144 | 4.0 | 6.0 | 0.00 | 0.00 | 0.00 | 26 | 1015.9 |
| 20260509145556 | 68 | 156 | 3.0 | 7.0 | 0.00 | 0.00 | 0.00 | 27 | 1015.8 |
| 20260509145055 | 68 | 215 | 4.0 | 7.0 | 0.00 | 0.00 | 0.00 | 28 | 1015.8 |
| 20260509144553 | 67 | 213 | 2.0 | 5.0 | 0.00 | 0.00 | 0.00 | 28 | 1015.8 |
| 20260509144052 | 66 | 200 | 1.0 | 5.0 | 0.00 | 0.00 | 0.00 | 29 | 1015.8 |
| 20260509143550 | 66 | 200 | 1.0 | 5.0 | 0.00 | 0.00 | 0.00 | 29 | 1015.8 |
| 20260509143050 | 65 | 286 | 2.0 | 5.0 | 0.00 | 0.00 | 0.00 | 29 | 1015.8 |
| 20260509142548 | 65 | 294 | 1.0 | 5.0 | 0.00 | 0.00 | 0.00 | 30 | 1015.7 |
| 20260509142047 | 66 | 269 | 3.0 | 5.0 | 0.00 | 0.00 | 0.00 | 29 | 1015.7 |
| 20260509141546 | 65 | 261 | 2.0 | 5.0 | 0.00 | 0.00 | 0.00 | 29 | 1015.6 |
| 20260509141046 | 65 | 326 | 1.0 | 3.0 | 0.00 | 0.00 | 0.00 | 30 | 1015.6 |
| 20260509140545 | 65 | 42 | 1.0 | 2.0 | 0.00 | 0.00 | 0.00 | 29 | 1015.6 |
| 20260509140054 | 65 | 42 | 1.0 | 2.0 | 0.00 | 0.00 | 0.00 | 29 | 1015.5 |
| 20260509135544 | 64 | 42 | 0.0 | 4.0 | 0.00 | 0.00 | 0.00 | 29 | 1015.5 |
| 20260509135045 | 63 | 42 | 0.0 | 4.0 | 0.00 | 0.00 | 0.00 | 32 | 1015.6 |
| 20260509134544 | 62 | 42 | 0.0 | 1.0 | 0.00 | 0.00 | 0.00 | 31 | 1015.5 |
| 20260509134044 | 62 | 42 | 0.0 | 2.0 | 0.00 | 0.00 | 0.00 | 31 | 1015.5 |
| 20260509133543 | 61 | 42 | 0.0 | 2.0 | 0.00 | 0.00 | 0.00 | 33 | 1015.5 |
| 20260509133043 | 60 | 42 | 0.0 | 4.0 | 0.00 | 0.00 | 0.00 | 33 | 1015.5 |
| 20260509132545 | 60 | 42 | 1.0 | 4.0 | 0.00 | 0.00 | 0.00 | 33 | 1015.5 |
| 20260509132043 | 59 | 69 | 0.0 | 4.0 | 0.00 | 0.00 | 0.00 | 33 | 1015.6 |
| 20260509131541 | 58 | 73 | 1.0 | 4.0 | 0.00 | 0.00 | 0.00 | 34 | 1015.5 |
| 20260509131040 | 58 | 74 | 1.0 | 7.0 | 0.00 | 0.00 | 0.00 | 35 | 1015.4 |
| 20260509130540 | 58 | 60 | 2.0 | 5.0 | 0.00 | 0.00 | 0.00 | 36 | 1015.3 |
| 20260509130039 | 57 | 69 | 3.0 | 5.0 | 0.00 | 0.00 | 0.00 | 35 | 1015.3 |
| 20260509125538 | 58 | 63 | 1.0 | 4.0 | 0.00 | 0.00 | 0.00 | 35 | 1015.3 |
| 20260509125038 | 58 | 43 | 1.0 | 4.0 | 0.00 | 0.00 | 0.00 | 34 | 1015.3 |
| 20260509124537 | 58 | 360 | 0.0 | 5.0 | 0.00 | 0.00 | 0.00 | 34 | 1015.1 |
| 20260509124036 | 58 | 347 | 1.0 | 6.0 | 0.00 | 0.00 | 0.00 | 32 | 1015.2 |
| 20260509123539 | 58 | 347 | 3.0 | 6.0 | 0.00 | 0.00 | 0.00 | 33 | 1015.1 |
| 20260509123035 | 58 | 321 | 0.0 | 5.0 | 0.00 | 0.00 | 0.00 | 35 | 1014.9 |
| 20260509122533 | 57 | 42 | 0.0 | 3.0 | 0.00 | 0.00 | 0.00 | 35 | 1014.8 |
| 20260509122033 | 58 | 43 | 0.0 | 4.0 | 0.00 | 0.00 | 0.00 | 32 | 1014.7 |
| 20260509121537 | 58 | 64 | 1.0 | 3.0 | 0.00 | 0.00 | 0.00 | 33 | 1014.6 |
| 20260509121031 | 57 | 64 | 1.0 | 2.0 | 0.00 | 0.00 | 0.00 | 33 | 1014.4 |
| 20260509120531 | 57 | 64 | 0.0 | 1.0 | 0.00 | 0.00 | 0.00 | 34 | 1014.4 |
| 20260509120030 | 57 | 64 | 0.0 | 1.0 | 0.00 | 0.00 | 0.00 | 35 | 1014.3 |
| 20260509115528 | 58 | 64 | 0.0 | 1.0 | 0.00 | 0.00 | 0.00 | 35 | 1014.3 |
| 20260509115027 | 58 | 64 | 0.0 | 4.0 | 0.00 | 0.00 | 0.00 | 34 | 1014.3 |
| 20260509114527 | 58 | 64 | 1.0 | 4.0 | 0.00 | 0.00 | 0.00 | 33 | 1014.3 |
| 20260509114026 | 59 | 90 | 0.0 | 4.0 | 0.00 | 0.00 | 0.00 | 33 | 1014.1 |
| 20260509113525 | 59 | 90 | 0.0 | 4.0 | 0.00 | 0.00 | 0.00 | 31 | 1014.2 |
| 20260509113024 | 59 | 94 | 1.0 | 3.0 | 0.00 | 0.00 | 0.00 | 32 | 1014.0 |
| 20260509112524 | 58 | 94 | 1.0 | 2.0 | 0.00 | 0.00 | 0.00 | 33 | 1014.0 |
| 20260509112023 | 59 | 94 | 0.0 | 4.0 | 0.00 | 0.00 | 0.00 | 31 | 1013.9 |
| 20260509111523 | 60 | 94 | 0.0 | 4.0 | 0.00 | 0.00 | 0.00 | 29 | 1013.9 |
| 20260509111022 | 59 | 130 | 0.0 | 2.0 | 0.00 | 0.00 | 0.00 | 30 | 1013.9 |
| 20260509110522 | 60 | 130 | 0.0 | 2.0 | 0.00 | 0.00 | 0.00 | 30 | 1013.8 |
| 20260509110021 | 60 | 130 | 1.0 | 2.0 | 0.00 | 0.00 | 0.00 | 29 | 1013.9 |
| 20260509105523 | 60 | 130 | 0.0 | 2.0 | 0.00 | 0.00 | 0.00 | 29 | 1013.7 |
| 20260509105024 | 60 | 130 | 0.0 | 2.0 | 0.00 | 0.00 | 0.00 | 28 | 1013.7 |
| 20260509104533 | 60 | 130 | 0.0 | 2.0 | 0.00 | 0.00 | 0.00 | 29 | 1013.7 |
| 20260509104020 | 60 | 130 | 0.0 | 2.0 | 0.00 | 0.00 | 0.00 | 29 | 1013.7 |
| 20260509103519 | 61 | 130 | 0.0 | 2.0 | 0.00 | 0.00 | 0.00 | 28 | 1013.7 |
| 20260509103019 | 61 | 130 | 0.0 | 2.0 | 0.00 | 0.00 | 0.00 | 27 | 1013.7 |
| 20260509102519 | 61 | 130 | 0.0 | 2.0 | 0.00 | 0.00 | 0.00 | 27 | 1013.6 |
| 20260509102019 | 61 | 130 | 0.0 | 2.0 | 0.00 | 0.00 | 0.00 | 28 | 1013.6 |
| 20260509101519 | 62 | 130 | 0.0 | 2.0 | 0.00 | 0.00 | 0.00 | 27 | 1013.6 |
| 20260509101021 | 61 | 130 | 0.0 | 1.0 | 0.00 | 0.00 | 0.00 | 26 | 1013.5 |
| 20260509100517 | 61 | 130 | 0.0 | 2.0 | 0.00 | 0.00 | 0.00 | 28 | 1013.6 |
| 20260509100017 | 61 | 130 | 0.0 | 4.0 | 0.00 | 0.00 | 0.00 | 26 | 1013.5 |
| 20260509095516 | 62 | 130 | 1.0 | 4.0 | 0.00 | 0.00 | 0.00 | 27 | 1013.5 |
| 20260509095015 | 62 | 130 | 0.0 | 2.0 | 0.00 | 0.00 | 0.00 | 26 | 1013.6 |
| 20260509094515 | 62 | 130 | 1.0 | 2.0 | 0.00 | 0.00 | 0.00 | 25 | 1013.5 |
| 20260509094014 | 62 | 130 | 0.0 | 1.0 | 0.00 | 0.00 | 0.00 | 28 | 1013.5 |
| 20260509093517 | 62 | 130 | 0.0 | 2.0 | 0.00 | 0.00 | 0.00 | 27 | 1013.5 |
| 20260509093013 | 62 | 130 | 0.0 | 2.0 | 0.00 | 0.00 | 0.00 | 27 | 1013.5 |
| 20260509092513 | 62 | 130 | 0.0 | 1.0 | 0.00 | 0.00 | 0.00 | 27 | 1013.4 |
| 20260509092013 | 62 | 130 | 0.0 | 1.0 | 0.00 | 0.00 | 0.00 | 27 | 1013.4 |
| 20260509091512 | 63 | 130 | 0.0 | 0.0 | 0.00 | 0.00 | 0.00 | 26 | 1013.5 |
| 20260509091013 | 63 | 130 | 0.0 | 1.0 | 0.00 | 0.00 | 0.00 | 25 | 1013.5 |
| 20260509090511 | 64 | 130 | 0.0 | 2.0 | 0.00 | 0.00 | 0.00 | 24 | 1013.4 |
| 20260509090012 | 65 | 130 | 0.0 | 6.0 | 0.00 | 0.00 | 0.00 | 22 | 1013.5 |
| 20260509085513 | 65 | 130 | 1.0 | 6.0 | 0.00 | 0.00 | 0.00 | 22 | 1013.4 |
| 20260509085010 | 63 | 142 | 0.0 | 4.0 | 0.00 | 0.00 | 0.00 | 26 | 1013.4 |
| 20260509084521 | 64 | 142 | 0.0 | 4.0 | 0.00 | 0.00 | 0.00 | 26 | 1013.4 |
| 20260509084009 | 64 | 223 | 0.0 | 2.0 | 0.00 | 0.00 | 0.00 | 25 | 1013.5 |
| 20260509083508 | 64 | 223 | 0.0 | 2.0 | 0.00 | 0.00 | 0.00 | 26 | 1013.5 |
| 20260509083009 | 64 | 223 | 1.0 | 2.0 | 0.00 | 0.00 | 0.00 | 26 | 1013.4 |
| 20260509082509 | 64 | 223 | 0.0 | 2.0 | 0.00 | 0.00 | 0.00 | 26 | 1013.4 |
| 20260509082009 | 64 | 225 | 0.0 | 2.0 | 0.00 | 0.00 | 0.00 | 26 | 1013.4 |
| 20260509081507 | 65 | 225 | 0.0 | 2.0 | 0.00 | 0.00 | 0.00 | 25 | 1013.5 |
| 20260509081011 | 65 | 225 | 0.0 | 2.0 | 0.00 | 0.00 | 0.00 | 24 | 1013.5 |
| 20260509080509 | 65 | 225 | 0.0 | 2.0 | 0.00 | 0.00 | 0.00 | 25 | 1013.5 |
| 20260509080019 | 64 | 225 | 0.0 | 4.0 | 0.00 | 0.00 | 0.00 | 26 | 1013.5 |
| 20260509075505 | 65 | 225 | 2.0 | 5.0 | 0.00 | 0.00 | 0.00 | 27 | 1013.5 |
| 20260509075004 | 66 | 225 | 0.0 | 5.0 | 0.00 | 0.00 | 0.00 | 26 | 1013.6 |
| 20260509074505 | 65 | 96 | 0.0 | 4.0 | 0.00 | 0.00 | 0.00 | 24 | 1013.6 |
| 20260509074004 | 65 | 44 | 0.0 | 4.0 | 0.00 | 0.00 | 0.00 | 25 | 1013.6 |
| 20260509073503 | 65 | 44 | 0.0 | 3.0 | 0.00 | 0.00 | 0.00 | 24 | 1013.6 |
| 20260509073004 | 66 | 44 | 0.0 | 2.0 | 0.00 | 0.00 | 0.00 | 23 | 1013.5 |
| 20260509072504 | 66 | 44 | 0.0 | 2.0 | 0.00 | 0.00 | 0.00 | 22 | 1013.6 |
| 20260509072003 | 66 | 44 | 0.0 | 2.0 | 0.00 | 0.00 | 0.00 | 23 | 1013.6 |
| 20260509071503 | 65 | 44 | 0.0 | 2.0 | 0.00 | 0.00 | 0.00 | 24 | 1013.7 |
| 20260509071004 | 65 | 44 | 0.0 | 1.0 | 0.00 | 0.00 | 0.00 | 26 | 1013.7 |
| 20260509070503 | 65 | 44 | 0.0 | 1.0 | 0.00 | 0.00 | 0.00 | 25 | 1013.7 |
| 20260509070001 | 65 | 44 | 0.0 | 2.0 | 0.00 | 0.00 | 0.00 | 26 | 1013.7 |
| 20260509065500 | 65 | 44 | 0.0 | 2.0 | 0.00 | 0.00 | 0.00 | 26 | 1013.6 |
| 20260509065100 | 65 | 44 | 0.0 | 1.0 | 0.00 | 0.00 | 0.00 | 26 | 1013.7 |
| 20260509064617 | 65 | 44 | 0.0 | 1.0 | 0.00 | 0.00 | 0.00 | 25 | 1013.7 |
| 20260509064100 | 65 | 44 | 0.0 | 0.0 | 0.00 | 0.00 | 0.00 | 26 | 1013.6 |
| 20260509063558 | 66 | 44 | 0.0 | 2.0 | 0.00 | 0.00 | 0.00 | 25 | 1013.6 |
| 20260509063100 | 66 | 44 | 0.0 | 2.0 | 0.00 | 0.00 | 0.00 | 24 | 1013.6 |
| 20260509062557 | 66 | 44 | 0.0 | 1.0 | 0.00 | 0.00 | 0.00 | 24 | 1013.6 |
| 20260509062057 | 67 | 44 | 0.0 | 2.0 | 0.00 | 0.00 | 0.00 | 21 | 1013.7 |
| 20260509061556 | 67 | 44 | 0.0 | 2.0 | 0.00 | 0.00 | 0.00 | 23 | 1013.7 |
| 20260509061053 | 67 | 44 | 0.0 | 1.0 | 0.00 | 0.00 | 0.00 | 23 | 1013.7 |
| 20260509060552 | 67 | 44 | 0.0 | 2.0 | 0.00 | 0.00 | 0.00 | 22 | 1013.7 |
| 20260509060051 | 67 | 44 | 0.0 | 2.0 | 0.00 | 0.00 | 0.00 | 22 | 1013.8 |
| 20260509055551 | 67 | 44 | 0.0 | 2.0 | 0.00 | 0.00 | 0.00 | 21 | 1013.8 |
| 20260509055054 | 67 | 44 | 0.0 | 2.0 | 0.00 | 0.00 | 0.00 | 22 | 1013.8 |
| 20260509054553 | 68 | 44 | 0.0 | 2.0 | 0.00 | 0.00 | 0.00 | 21 | 1013.8 |
| 20260509054052 | 68 | 44 | 0.0 | 2.0 | 0.00 | 0.00 | 0.00 | 20 | 1013.9 |
| 20260509053551 | 67 | 44 | 0.0 | 4.0 | 0.00 | 0.00 | 0.00 | 22 | 1013.8 |
| 20260509053052 | 67 | 44 | 1.0 | 4.0 | 0.00 | 0.00 | 0.00 | 22 | 1013.9 |
| 20260509052550 | 67 | 44 | 1.0 | 2.0 | 0.00 | 0.00 | 0.00 | 22 | 1014.0 |
| 20260509052049 | 68 | 44 | 0.0 | 2.0 | 0.00 | 0.00 | 0.00 | 22 | 1014.0 |
| 20260509051558 | 68 | 44 | 0.0 | 2.0 | 0.00 | 0.00 | 0.00 | 22 | 1014.0 |
| 20260509051049 | 68 | 44 | 1.0 | 4.0 | 0.00 | 0.00 | 0.00 | 21 | 1014.1 |
| 20260509050549 | 68 | 44 | 0.0 | 4.0 | 0.00 | 0.00 | 0.00 | 20 | 1014.1 |
| 20260509050049 | 68 | 46 | 2.0 | 3.0 | 0.00 | 0.00 | 0.00 | 20 | 1014.1 |
| 20260509045548 | 68 | 136 | 0.0 | 2.0 | 0.00 | 0.00 | 0.00 | 21 | 1014.1 |
| 20260509045048 | 68 | 136 | 0.0 | 2.0 | 0.00 | 0.00 | 0.00 | 21 | 1014.2 |
| 20260509044549 | 68 | 136 | 0.0 | 2.0 | 0.00 | 0.00 | 0.00 | 22 | 1014.1 |
| 20260509044047 | 69 | 136 | 0.0 | 2.0 | 0.00 | 0.00 | 0.00 | 21 | 1014.1 |
| 20260509043548 | 69 | 136 | 0.0 | 2.0 | 0.00 | 0.00 | 0.00 | 21 | 1014.1 |
| 20260509043048 | 68 | 136 | 0.0 | 2.0 | 0.00 | 0.00 | 0.00 | 22 | 1014.1 |
| 20260509042550 | 68 | 136 | 0.0 | 2.0 | 0.00 | 0.00 | 0.00 | 23 | 1014.0 |
| 20260509042048 | 68 | 136 | 0.0 | 2.0 | 0.00 | 0.00 | 0.00 | 24 | 1014.0 |
| 20260509041548 | 69 | 140 | 0.0 | 1.0 | 0.00 | 0.00 | 0.00 | 25 | 1013.9 |
| 20260509041047 | 68 | 140 | 0.0 | 1.0 | 0.00 | 0.00 | 0.00 | 24 | 1013.9 |
| 20260509040550 | 69 | 140 | 0.0 | 1.0 | 0.00 | 0.00 | 0.00 | 25 | 1013.8 |
| 20260509040046 | 69 | 140 | 0.0 | 1.0 | 0.00 | 0.00 | 0.00 | 24 | 1013.7 |
| 20260509035546 | 70 | 140 | 0.0 | 0.0 | 0.00 | 0.00 | 0.00 | 24 | 1013.7 |
| 20260509035046 | 70 | 140 | 0.0 | 0.0 | 0.00 | 0.00 | 0.00 | 22 | 1013.7 |
| 20260509034548 | 70 | 140 | 0.0 | 0.0 | 0.00 | 0.00 | 0.00 | 22 | 1013.6 |
| 20260509034045 | 70 | 140 | 0.0 | 0.0 | 0.00 | 0.00 | 0.00 | 22 | 1013.5 |
| 20260509033545 | 70 | 140 | 0.0 | 4.0 | 0.00 | 0.00 | 0.00 | 22 | 1013.4 |
| 20260509033045 | 71 | 140 | 0.0 | 4.0 | 0.00 | 0.00 | 0.00 | 22 | 1013.3 |
| 20260509032545 | 72 | 43 | 0.0 | 2.0 | 0.00 | 0.00 | 0.00 | 20 | 1013.2 |
| 20260509032042 | 72 | 43 | 0.0 | 1.0 | 0.00 | 0.00 | 0.00 | 20 | 1013.1 |
| 20260509031541 | 72 | 43 | 0.0 | 1.0 | 0.00 | 0.00 | 0.00 | 19 | 1013.0 |
| 20260509031040 | 73 | 43 | 0.0 | 1.0 | 0.00 | 0.00 | 0.00 | 19 | 1012.9 |
| 20260509030540 | 73 | 43 | 0.0 | 1.0 | 0.00 | 0.00 | 0.00 | 19 | 1012.8 |
| 20260509030040 | 73 | 43 | 0.0 | 2.0 | 0.00 | 0.00 | 0.00 | 18 | 1012.8 |
| 20260509025540 | 73 | 43 | 0.0 | 2.0 | 0.00 | 0.00 | 0.00 | 19 | 1012.8 |
| 20260509025043 | 74 | 43 | 0.0 | 4.0 | 0.00 | 0.00 | 0.00 | 18 | 1012.7 |
| 20260509024539 | 74 | 26 | 1.0 | 2.0 | 0.00 | 0.00 | 0.00 | 19 | 1012.6 |
| 20260509024039 | 75 | 26 | 0.0 | 2.0 | 0.00 | 0.00 | 0.00 | 17 | 1012.5 |
| 20260509023541 | 76 | 26 | 0.0 | 2.0 | 0.00 | 0.00 | 0.00 | 17 | 1012.4 |
| 20260509023041 | 76 | 26 | 0.0 | 1.0 | 0.00 | 0.00 | 0.00 | 17 | 1012.4 |
| 20260509022541 | 76 | 26 | 0.0 | 2.0 | 0.00 | 0.00 | 0.00 | 17 | 1012.4 |
| 20260509022039 | 77 | 26 | 0.0 | 2.0 | 0.00 | 0.00 | 0.00 | 15 | 1012.3 |
| 20260509021539 | 77 | 26 | 0.0 | 2.0 | 0.00 | 0.00 | 0.00 | 15 | 1012.2 |
| 20260509021039 | 78 | 26 | 0.0 | 2.0 | 0.00 | 0.00 | 0.00 | 14 | 1012.2 |
| 20260509020538 | 78 | 13 | 0.0 | 1.0 | 0.00 | 0.00 | 0.00 | 15 | 1012.2 |
| 20260509020039 | 79 | 13 | 0.0 | 1.0 | 0.00 | 0.00 | 0.00 | 14 | 1012.2 |
| 20260509015539 | 80 | 13 | 0.0 | 4.0 | 0.00 | 0.00 | 0.00 | 13 | 1012.1 |
| 20260509015037 | 81 | 13 | 0.0 | 4.0 | 0.00 | 0.00 | 0.00 | 12 | 1012.0 |
| 20260509014544 | 82 | 13 | 0.0 | 2.0 | 0.00 | 0.00 | 0.00 | 11 | 1012.0 |
| 20260509014037 | 83 | 13 | 1.0 | 5.0 | 0.00 | 0.00 | 0.00 | 10 | 1011.9 |
| 20260509013537 | 83 | 20 | 2.0 | 7.0 | 0.00 | 0.00 | 0.00 | 10 | 1011.9 |
| 20260509013043 | 84 | 23 | 1.0 | 7.0 | 0.00 | 0.00 | 0.00 | 10 | 1011.9 |
| 20260509012537 | 84 | 21 | 4.0 | 6.0 | 0.00 | 0.00 | 0.00 | 9 | 1011.9 |
| 20260509012036 | 84 | 26 | 2.0 | 6.0 | 0.00 | 0.00 | 0.00 | 10 | 1011.9 |
| 20260509011541 | 84 | 16 | 2.0 | 8.0 | 0.00 | 0.00 | 0.00 | 9 | 1011.8 |
| 20260509011036 | 85 | 39 | 4.0 | 9.0 | 0.00 | 0.00 | 0.00 | 9 | 1011.9 |
| 20260509010538 | 85 | 33 | 3.0 | 9.0 | 0.00 | 0.00 | 0.00 | 9 | 1011.9 |
| 20260509010036 | 85 | 346 | 3.0 | 10.0 | 0.00 | 0.00 | 0.00 | 9 | 1011.9 |
| 20260509005536 | 85 | 61 | 3.0 | 10.0 | 0.00 | 0.00 | 0.00 | 9 | 1011.9 |
| 20260509005036 | 86 | 18 | 4.0 | 9.0 | 0.00 | 0.00 | 0.00 | 9 | 1011.8 |
| 20260509004535 | 86 | 18 | 4.0 | 11.0 | 0.00 | 0.00 | 0.00 | 9 | 1011.9 |
| 20260509004035 | 86 | 40 | 4.0 | 11.0 | 0.00 | 0.00 | 0.00 | 9 | 1011.9 |
| 20260509003535 | 86 | 343 | 6.0 | 10.0 | 0.00 | 0.00 | 0.00 | 8 | 1011.9 |
| 20260509003036 | 86 | 7 | 3.0 | 10.0 | 0.00 | 0.00 | 0.00 | 9 | 1011.9 |
| 20260509002534 | 87 | 355 | 3.0 | 13.0 | 0.00 | 0.00 | 0.00 | 9 | 1011.9 |
| 20260509002034 | 87 | 350 | 6.0 | 15.0 | 0.00 | 0.00 | 0.00 | 9 | 1011.9 |
| 20260509001536 | 87 | 1 | 7.0 | 15.0 | 0.00 | 0.00 | 0.00 | 9 | 1011.9 |
| 20260509001034 | 87 | 313 | 6.0 | 12.0 | 0.00 | 0.00 | 0.00 | 9 | 1011.9 |
| 20260509000533 | 87 | 344 | 6.0 | 14.0 | 0.00 | 0.00 | 0.00 | 9 | 1011.9 |
| 20260509000033 | 87 | 353 | 3.0 | 12.0 | 0.00 | 0.00 | 0.00 | 9 | 1011.9 |
| 20260508235534 | 88 | 352 | 6.0 | 13.0 | 0.00 | 0.00 | 0.00 | 9 | 1012.0 |
| 20260508235033 | 88 | 339 | 7.0 | 13.0 | 0.00 | 0.00 | 0.00 | 9 | 1012.0 |
| 20260508234535 | 87 | 20 | 5.0 | 11.0 | 0.00 | 0.00 | 0.00 | 8 | 1012.0 |
| 20260508234034 | 87 | 352 | 2.0 | 8.0 | 0.00 | 0.00 | 0.00 | 9 | 1012.0 |
| 20260508233532 | 87 | 17 | 2.0 | 8.0 | 0.00 | 0.00 | 0.00 | 9 | 1012.0 |
| 20260508233042 | 87 | 357 | 1.0 | 6.0 | 0.00 | 0.00 | 0.00 | 9 | 1012.0 |
| 20260508232530 | 88 | 359 | 3.0 | 6.0 | 0.00 | 0.00 | 0.00 | 9 | 1012.1 |
| 20260508232031 | 88 | 7 | 2.0 | 8.0 | 0.00 | 0.00 | 0.00 | 9 | 1012.1 |
| 20260508231536 | 87 | 346 | 3.0 | 11.0 | 0.00 | 0.00 | 0.00 | 9 | 1012.2 |
| 20260508231031 | 88 | 17 | 7.0 | 11.0 | 0.00 | 0.00 | 0.00 | 9 | 1012.2 |
| 20260508230530 | 89 | 83 | 1.0 | 12.0 | 0.00 | 0.00 | 0.00 | 9 | 1012.1 |
| 20260508230030 | 89 | 34 | 6.0 | 12.0 | 0.00 | 0.00 | 0.00 | 9 | 1012.1 |
| 20260508225529 | 88 | 59 | 4.0 | 11.0 | 0.00 | 0.00 | 0.00 | 10 | 1012.0 |
| 20260508225030 | 88 | 13 | 1.0 | 10.0 | 0.00 | 0.00 | 0.00 | 10 | 1012.1 |
| 20260508224530 | 88 | 1 | 4.0 | 13.0 | 0.00 | 0.00 | 0.00 | 9 | 1012.2 |
| 20260508224028 | 88 | 333 | 5.0 | 13.0 | 0.00 | 0.00 | 0.00 | 10 | 1012.2 |
| 20260508223528 | 87 | 359 | 3.0 | 12.0 | 0.00 | 0.00 | 0.00 | 9 | 1012.1 |
| 20260508223028 | 88 | 294 | 5.0 | 13.0 | 0.00 | 0.00 | 0.00 | 9 | 1012.3 |
| 20260508222528 | 89 | 281 | 5.0 | 14.0 | 0.00 | 0.00 | 0.00 | 9 | 1012.3 |
| 20260508222028 | 89 | 26 | 7.0 | 14.0 | 0.00 | 0.00 | 0.00 | 9 | 1012.3 |
| 20260508221527 | 88 | 313 | 6.0 | 13.0 | 0.00 | 0.00 | 0.00 | 10 | 1012.3 |
| 20260508221029 | 88 | 298 | 4.0 | 14.0 | 0.00 | 0.00 | 0.00 | 10 | 1012.4 |
| 20260508220528 | 88 | 4 | 4.0 | 14.0 | 0.00 | 0.00 | 0.00 | 10 | 1012.4 |
| 20260508220025 | 88 | 281 | 5.0 | 11.0 | 0.00 | 0.00 | 0.00 | 10 | 1012.4 |
| 20260508215525 | 87 | 250 | 4.0 | 6.0 | 0.00 | 0.00 | 0.00 | 9 | 1012.5 |
| 20260508215025 | 87 | 321 | 2.0 | 9.0 | 0.00 | 0.00 | 0.00 | 11 | 1012.5 |
| 20260508214527 | 87 | 169 | 2.0 | 9.0 | 0.00 | 0.00 | 0.00 | 10 | 1012.5 |
| 20260508214024 | 88 | 309 | 2.0 | 5.0 | 0.00 | 0.00 | 0.00 | 10 | 1012.6 |
| 20260508213523 | 87 | 293 | 1.0 | 5.0 | 0.00 | 0.00 | 0.00 | 9 | 1012.7 |
| 20260508213021 | 88 | 319 | 2.0 | 10.0 | 0.00 | 0.00 | 0.00 | 9 | 1012.8 |
| 20260508212521 | 88 | 40 | 4.0 | 11.0 | 0.00 | 0.00 | 0.00 | 10 | 1012.8 |
| 20260508212020 | 88 | 347 | 6.0 | 11.0 | 0.00 | 0.00 | 0.00 | 9 | 1012.8 |
| 20260508211528 | 87 | 9 | 5.0 | 11.0 | 0.00 | 0.00 | 0.00 | 10 | 1012.9 |
| 20260508211023 | 87 | 281 | 5.0 | 12.0 | 0.00 | 0.00 | 0.00 | 10 | 1012.9 |
| 20260508210519 | 87 | 276 | 3.0 | 12.0 | 0.00 | 0.00 | 0.00 | 9 | 1013.0 |
| 20260508210017 | 88 | 309 | 7.0 | 11.0 | 0.00 | 0.00 | 0.00 | 9 | 1013.1 |
| 20260508205516 | 87 | 262 | 1.0 | 5.0 | 0.00 | 0.00 | 0.00 | 9 | 1013.1 |
| 20260508205019 | 87 | 313 | 2.0 | 6.0 | 0.00 | 0.00 | 0.00 | 9 | 1013.1 |
| 20260508204517 | 89 | 111 | 2.0 | 9.0 | 0.00 | 0.00 | 0.00 | 9 | 1013.1 |
| 20260508204015 | 89 | 123 | 3.0 | 9.0 | 0.00 | 0.00 | 0.00 | 10 | 1013.2 |
| 20260508203515 | 89 | 33 | 1.0 | 12.0 | 0.00 | 0.00 | 0.00 | 9 | 1013.3 |
| 20260508203015 | 90 | 99 | 6.0 | 12.0 | 0.00 | 0.00 | 0.00 | 9 | 1013.3 |
| 20260508202514 | 89 | 77 | 2.0 | 9.0 | 0.00 | 0.00 | 0.00 | 10 | 1013.3 |
| 20260508202013 | 89 | 47 | 3.0 | 8.0 | 0.00 | 0.00 | 0.00 | 10 | 1013.4 |
| 20260508201512 | 87 | 26 | 3.0 | 8.0 | 0.00 | 0.00 | 0.00 | 9 | 1013.4 |
| 20260508201011 | 86 | 309 | 4.0 | 8.0 | 0.00 | 0.00 | 0.00 | 9 | 1013.5 |
| 20260508200510 | 86 | 212 | 4.0 | 8.0 | 0.00 | 0.00 | 0.00 | 10 | 1013.5 |
| 20260508200012 | 85 | 131 | 2.0 | 9.0 | 0.00 | 0.00 | 0.00 | 9 | 1013.5 |
| 20260508195509 | 86 | 314 | 4.0 | 9.0 | 0.00 | 0.00 | 0.00 | 9 | 1013.6 |
| 20260508195008 | 86 | 351 | 3.0 | 9.0 | 0.00 | 0.00 | 0.00 | 10 | 1013.7 |
| 20260508194513 | 86 | 290 | 4.0 | 9.0 | 0.00 | 0.00 | 0.00 | 10 | 1013.7 |
| 20260508194007 | 86 | 1 | 4.0 | 10.0 | 0.00 | 0.00 | 0.00 | 10 | 1013.7 |
| 20260508193507 | 86 | 11 | 5.0 | 10.0 | 0.00 | 0.00 | 0.00 | 10 | 1013.8 |
| 20260508193009 | 86 | 317 | 3.0 | 7.0 | 0.00 | 0.00 | 0.00 | 10 | 1013.9 |
| 20260508192506 | 85 | 348 | 2.0 | 11.0 | 0.00 | 0.00 | 0.00 | 10 | 1013.9 |
| 20260508192005 | 86 | 348 | 5.0 | 11.0 | 0.00 | 0.00 | 0.00 | 10 | 1014.0 |
| 20260508191506 | 86 | 11 | 3.0 | 9.0 | 0.00 | 0.00 | 0.00 | 11 | 1014.0 |
| 20260508191003 | 86 | 23 | 2.0 | 10.0 | 0.00 | 0.00 | 0.00 | 10 | 1014.0 |
| 20260508190503 | 85 | 313 | 5.0 | 10.0 | 0.00 | 0.00 | 0.00 | 12 | 1014.1 |
| 20260508190002 | 85 | 1 | 3.0 | 7.0 | 0.00 | 0.00 | 0.00 | 11 | 1014.2 |
| 20260508185600 | 85 | 7 | 3.0 | 9.0 | 0.00 | 0.00 | 0.00 | 13 | 1014.1 |
| 20260508185100 | 86 | 65 | 1.0 | 9.0 | 0.00 | 0.00 | 0.00 | 12 | 1014.2 |
| 20260508184558 | 86 | 89 | 5.0 | 9.0 | 0.00 | 0.00 | 0.00 | 13 | 1014.3 |
| 20260508184100 | 86 | 84 | 2.0 | 7.0 | 0.00 | 0.00 | 0.00 | 14 | 1014.3 |
| 20260508183555 | 84 | 14 | 3.0 | 7.0 | 0.00 | 0.00 | 0.00 | 14 | 1014.4 |
| 20260508183055 | 83 | 322 | 1.0 | 8.0 | 0.00 | 0.00 | 0.00 | 15 | 1014.4 |
| 20260508182555 | 84 | 11 | 5.0 | 10.0 | 0.00 | 0.00 | 0.00 | 15 | 1014.6 |
| 20260508182054 | 84 | 36 | 5.0 | 10.0 | 0.00 | 0.00 | 0.00 | 14 | 1014.6 |
| 20260508181556 | 84 | 13 | 3.0 | 7.0 | 0.00 | 0.00 | 0.00 | 16 | 1014.7 |
| 20260508181055 | 83 | 67 | 1.0 | 7.0 | 0.00 | 0.00 | 0.00 | 16 | 1014.7 |
| 20260508180551 | 82 | 22 | 1.0 | 8.0 | 0.00 | 0.00 | 0.00 | 16 | 1014.8 |
| 20260508180050 | 84 | 336 | 3.0 | 9.0 | 0.00 | 0.00 | 0.00 | 14 | 1014.9 |
| 20260508175547 | 82 | 9 | 3.0 | 10.0 | 0.00 | 0.00 | 0.00 | 15 | 1014.9 |
| 20260508175047 | 82 | 13 | 3.0 | 10.0 | 0.00 | 0.00 | 0.00 | 15 | 1014.9 |
| 20260508174555 | 82 | 15 | 1.0 | 6.0 | 0.00 | 0.00 | 0.00 | 15 | 1015.0 |
| 20260508174045 | 82 | 334 | 4.0 | 6.0 | 0.00 | 0.00 | 0.00 | 15 | 1015.0 |
| 20260508173544 | 82 | 28 | 1.0 | 6.0 | 0.00 | 0.00 | 0.00 | 13 | 1015.1 |